Tillbaka till svenska Fidonet
English   Information   Debug  
FILM   0/18
FNEWS_PUBLISH   4881
FN_SYSOP   42085
FN_SYSOP_OLD1   71952
FTP_FIDO   0/2
FTSC_PUBLIC   0/13949
FUNNY   0/4886
GENEALOGY.EUR   0/71
GET_INFO   105
GOLDED   0/408
HAM   12332/16617
HOLYSMOKE   0/6791
HOT_SITES   0/1
HTMLEDIT   0/71
HUB203   466
HUB_100   264
HUB_400   39
HUMOR   0/29
IC   0/2851
INTERNET   0/424
INTERUSER   0/3
IP_CONNECT   719
JAMNNTPD   0/233
JAMTLAND   0/47
KATTY_KORNER   0/41
LAN   0/16
LINUX-USER   0/19
LINUXHELP   0/1155
LINUX   0/22287
LINUX_BBS   0/957
mail   18.68
mail_fore_ok   249
MENSA   0/341
MODERATOR   0/102
MONTE   0/992
MOSCOW_OKLAHOMA   0/1245
MUFFIN   0/783
MUSIC   0/321
N203_STAT   938
N203_SYSCHAT   313
NET203   321
NET204   69
NET_DEV   0/10
NORD.ADMIN   0/101
NORD.CHAT   0/2572
NORD.FIDONET   189
NORD.HARDWARE   0/28
NORD.KULTUR   0/114
NORD.PROG   0/32
NORD.SOFTWARE   0/88
NORD.TEKNIK   0/58
NORD   0/453
OCCULT_CHAT   0/93
OS2BBS   0/787
OS2DOSBBS   0/580
OS2HW   0/42
OS2INET   0/37
OS2LAN   0/134
OS2PROG   0/36
OS2REXX   0/113
OS2USER-L   207
OS2   0/4829
OSDEBATE   12329/18996
PASCAL   0/490
PERL   0/457
PHP   0/45
POINTS   0/405
POLITICS   0/29554
POL_INC   12446/14731
PSION   103
R20_ADMIN   1133
R20_AMATORRADIO   0/2
R20_BEST_OF_FIDONET   16
R20_CHAT   0/896
R20_DEPP   0/3
R20_DEV   400
R20_ECHO2   1788
R20_ECHOPRES   0/35
R20_ESTAT   0/719
R20_FIDONETPROG...
...RAM.MYPOINT
  0/2
R20_FIDONETPROGRAM   0/22
R20_FIDONET   0/248
R20_FILEFIND   0/24
R20_FILEFOUND   0/22
R20_HIFI   0/3
R20_INFO2   3681
R20_INTERNET   0/12940
R20_INTRESSE   0/60
R20_INTR_KOM   0/99
R20_KANDIDAT.CHAT   42
R20_KANDIDAT   28
R20_KOM_DEV   112
R20_KONTROLL   0/13360
R20_KORSET   0/18
R20_LOKALTRAFIK   0/24
R20_MODERATOR   0/1852
R20_NC   76
R20_NET200   245
R20_NETWORK.OTH...
...ERNETS
  0/13
R20_OPERATIVSYS...
...TEM.LINUX
  0/44
R20_PROGRAMVAROR   0/1
R20_REC2NEC   534
R20_SFOSM   0/341
R20_SF   0/108
R20_SPRAK.ENGLISH   0/1
R20_SQUISH   107
R20_TEST   2
R20_WORST_OF_FIDONET   20
RAR   0/9
RA_MULTI   106
RA_UTIL   0/162
REGCON.EUR   0/2067
REGCON   0/13
SCIENCE   0/1206
SF   0/239
SHAREWARE_SUPPORT   0/5146
SHAREWRE   0/14
SIMPSONS   0/169
STATS_OLD1   0/2539.065
STATS_OLD2   0/2530
STATS_OLD3   0/2395.095
STATS_OLD4   0/1692.25
SURVIVOR   0/495
SYSOPS_CORNER   0/3
SYSOP   0/84
TAGLINES   0/112
TEAMOS2   0/4530
TECH   0/2617
TEST.444   0/105
TRAPDOOR   0/19
TREK   0/755
TUB   0/290
UFO   0/40
UNIX   0/1316
USA_EURLINK   0/102
USR_MODEMS   0/1
VATICAN   0/2740
VIETNAM_VETS   0/14
VIRUS   0/378
VIRUS_INFO   0/201
VISUAL_BASIC   0/473
WHITEHOUSE   0/5187
WIN2000   0/101
WIN32   0/30
WIN95   0/4291
WIN95_OLD1   0/70272
WINDOWS   0/1517
WWB_SYSOP   0/419
WWB_TECH   621/810
ZCC-PUBLIC   0/1
ZEC   4

 
4DOS   0/134
ABORTION   0/7
ALASKA_CHAT   0/506
ALLFIX_FILE   0/1313
ALLFIX_FILE_OLD1   0/7997
ALT_DOS   0/152
AMATEUR_RADIO   0/1039
AMIGASALE   0/14
AMIGA   0/331
AMIGA_INT   0/1
AMIGA_PROG   0/20
AMIGA_SYSOP   0/26
ANIME   0/15
ARGUS   0/924
ASCII_ART   0/340
ASIAN_LINK   0/651
ASTRONOMY   0/417
AUDIO   0/92
AUTOMOBILE_RACING   0/105
BABYLON5   0/17862
BAG   135
BATPOWER   0/361
BBBS.ENGLISH   0/382
BBSLAW   0/109
BBS_ADS   0/5290
BBS_INTERNET   0/507
BIBLE   0/3563
BINKD   0/1119
BINKLEY   0/215
BLUEWAVE   0/2173
CABLE_MODEMS   0/25
CBM   0/46
CDRECORD   0/66
CDROM   0/20
CLASSIC_COMPUTER   0/378
COMICS   0/15
CONSPRCY   0/899
COOKING   41026
COOKING_OLD1   0/24719
COOKING_OLD2   0/40862
COOKING_OLD3   0/37489
COOKING_OLD4   0/35496
COOKING_OLD5   9370
C_ECHO   0/189
C_PLUSPLUS   0/31
DIRTY_DOZEN   0/201
DOORGAMES   0/2253
DOS_INTERNET   0/196
duplikat   6102
ECHOLIST   0/18295
EC_SUPPORT   0/318
ELECTRONICS   0/359
ELEKTRONIK.GER   1534
ENET.LINGUISTIC   0/13
ENET.POLITICS   0/4
ENET.SOFT   0/11701
ENET.SYSOP   34254
ENET.TALKS   0/32
ENGLISH_TUTOR   0/2000
EVOLUTION   0/1335
FDECHO   0/217
FDN_ANNOUNCE   0/7068
FIDONEWS   24978
FIDONEWS_OLD1   0/49742
FIDONEWS_OLD2   0/35949
FIDONEWS_OLD3   0/30874
FIDONEWS_OLD4   0/37224
FIDO_SYSOP   12920
FIDO_UTIL   0/180
FILEFIND   0/209
FILEGATE   0/212
Möte HAM, 16617 texter
 lista första sista föregående nästa
Text 5126, 921 rader
Skriven 2012-03-09 01:01:17 av Amsat List (1:323/120.0)
Ärende: [keps] orb12068.amsa
============================
[keps] orb12068.amsa

Sender: keps-bounces@amsat.org
Return-Path: <keps-bounces@amsat.org>
X-Rcpt: craig.healy@chowda.com
X-UIDL: 1331271518.2224

SB KEPS @ AMSAT  $ORB12068.O
Orbital Elements  12068.OSCAR

HR AMSAT ORBITAL ELEMENTS FOR OSCAR SATELLITES
FROM WA5QGD FORT WORTH,TX March 8, 2012
Send SUBSCRIBE KEPS/UNSUBSCRIBE KEPS to majordomo@amsat.org only
BID: ORB12068.O
TO ALL RADIO AMATEURS BT

Satellite: AO-07
Catalog number: 07530
Epoch time:      12067.55286541
Element set:    0326
Inclination:      101.4013 deg
RA of node:       068.6993 deg
Eccentricity:    0.0012120
Arg of perigee:   121.5543 deg
Mean anomaly:     238.6716 deg
Mean motion:   12.53587938 rev/day
Decay rate:       -2.7e-07 rev/day^2
Epoch rev:           70731
Checksum:              286

Satellite: FO-29
Catalog number: 24278
Epoch time:      12067.87282827
Element set:     790
Inclination:      098.5751 deg
RA of node:       181.8180 deg
Eccentricity:    0.0349771
Arg of perigee:   291.7006 deg
Mean anomaly:     064.7237 deg
Mean motion:   13.52977492 rev/day
Decay rate:       -4.2e-07 rev/day^2
Epoch rev:           76825
Checksum:              352

Satellite: SO-33
Catalog number: 25509
Epoch time:      12068.65143873
Element set:     181
Inclination:      031.4318 deg
RA of node:       182.5824 deg
Eccentricity:    0.0352507
Arg of perigee:   043.6490 deg
Mean anomaly:     319.1453 deg
Mean motion:   14.28677676 rev/day
Decay rate:       3.47e-06 rev/day^2
Epoch rev:           69826
Checksum:              324

Satellite: RS-22
Catalog number: 27939
Epoch time:      12068.79925379
Element set:     153
Inclination:      097.8194 deg
RA of node:       274.7209 deg
Eccentricity:    0.0012806
Arg of perigee:   219.8482 deg
Mean anomaly:     140.1787 deg
Mean motion:   14.63922118 rev/day
Decay rate:       6.67e-06 rev/day^2
Epoch rev:           45119
Checksum:              345

Satellite: VO-52
Catalog number: 28650
Epoch time:      12067.56635556
Element set:    0044
Inclination:      097.6101 deg
RA of node:       103.4515 deg
Eccentricity:    0.0026953
Arg of perigee:   017.5422 deg
Mean anomaly:     342.6728 deg
Mean motion:   14.82716923 rev/day
Decay rate:      1.046e-05 rev/day^2
Epoch rev:           36991
Checksum:              305

Satellite: HO-68
Catalog number: 36122
Epoch time:      12068.80960932
Element set:     266
Inclination:      100.3750 deg
RA of node:       130.1348 deg
Eccentricity:    0.0007179
Arg of perigee:   341.0631 deg
Mean anomaly:     019.0216 deg
Mean motion:   13.16293596 rev/day
Decay rate:       -4.4e-07 rev/day^2
Epoch rev:           10718
Checksum:              275

/EX
SB KEPS @ AMSAT  $ORB12068.D
Orbital Elements  12068.MICROS

HR AMSAT ORBITAL ELEMENTS FOR THE MICROSATS
FROM WA5QGD FORT WORTH,TX March 8, 2012
Send SUBSCRIBE KEPS/UNSUBSCRIBE KEPS to majordomo@amsat.org only
BID: ORB12068.D
TO ALL RADIO AMATEURS BT

Satellite: UO-11
Catalog number: 14781
Epoch time:      12068.88424508
Element set:     808
Inclination:      097.9676 deg
RA of node:       129.2329 deg
Eccentricity:    0.0009163
Arg of perigee:   005.9880 deg
Mean anomaly:     354.1438 deg
Mean motion:   14.80335040 rev/day
Decay rate:       8.70e-06 rev/day^2
Epoch rev:           50509
Checksum:              316

Satellite: AO-16
Catalog number: 20439
Epoch time:      12067.84510566
Element set:    0419
Inclination:      098.4194 deg
RA of node:       014.1118 deg
Eccentricity:    0.0011769
Arg of perigee:   098.0639 deg
Mean anomaly:     262.1879 deg
Mean motion:   14.32023328 rev/day
Decay rate:       1.27e-06 rev/day^2
Epoch rev:           15549
Checksum:              307

Satellite: LO-19
Catalog number: 20442
Epoch time:      12067.95341623
Element set:    0346
Inclination:      098.3850 deg
RA of node:       017.5809 deg
Eccentricity:    0.0012842
Arg of perigee:   091.6664 deg
Mean anomaly:     268.5986 deg
Mean motion:   14.32243432 rev/day
Decay rate:        9.1e-07 rev/day^2
Epoch rev:           15569
Checksum:              315

Satellite: AO-27
Catalog number: 22825
Epoch time:      12067.89040198
Element set:    0059
Inclination:      098.5638 deg
RA of node:       012.3335 deg
Eccentricity:    0.0007881
Arg of perigee:   212.5448 deg
Mean anomaly:     147.5248 deg
Mean motion:   14.29434569 rev/day
Decay rate:        3.7e-07 rev/day^2
Epoch rev:           96200
Checksum:              319

Satellite: IO-26
Catalog number: 22826
Epoch time:      12067.98057547
Element set:    0799
Inclination:      098.5588 deg
RA of node:       012.8195 deg
Eccentricity:    0.0008306
Arg of perigee:   207.3780 deg
Mean anomaly:     152.6965 deg
Mean motion:   14.29706149 rev/day
Decay rate:       1.14e-06 rev/day^2
Epoch rev:           96214
Checksum:              342

Satellite: GO-32
Catalog number: 25397
Epoch time:      12067.88315687
Element set:     720
Inclination:      098.3539 deg
RA of node:       051.6296 deg
Eccentricity:    0.0001068
Arg of perigee:   173.7130 deg
Mean anomaly:     186.4061 deg
Mean motion:   14.23260614 rev/day
Decay rate:        1.8e-07 rev/day^2
Epoch rev:           70961
Checksum:              303

Satellite: NO-44
Catalog number: 26931
Epoch time:      12067.82144679
Element set:    0988
Inclination:      067.0522 deg
RA of node:       021.5846 deg
Eccentricity:    0.0006668
Arg of perigee:   278.0861 deg
Mean anomaly:     081.9496 deg
Mean motion:   14.29766501 rev/day
Decay rate:        4.7e-07 rev/day^2
Epoch rev:           54475
Checksum:              342

